Zurück zum Katalog

FENGYUN 1C DEB

AktivSSO
NORAD 30931·DEBRIS·🇨🇳 China

Gestartet May 10, 1999 von Taiyuan Satellite Launch Center

Loading…

Nächste Überflüge (nächste 24 Stunden)

TLE

AktuellSource: Space-Track

Epoche: Sep 14, 2026, 03:44 UTC

1 30931U 99025AZV 26257.15571362  .00000437  00000-0  30448-3 0  9999
2 30931  99.1451 320.7343 0092133   1.3810  25.3781 14.02045712997849

Verfolge FENGYUN 1C DEB in Echtzeit mit AllMySat

Download on the App Store